Location: ?????oe
(44.4874°N, 135.7046°E)
Time: 07:44:34
(UTC+00:00)

Cosmos 1743 - Visible Passes

Search period start: 11 March 2026 00:00
Search period end: 21 March 2026 00:00
Orbit: 391 x 393 km, 82.5° (Epoch: 10 March)

Date Brightness Start Highest point End Pass type
(mag) Time Alt. Az. Time Alt. Az. Time Alt. Az.
11 Mar 5.8 18:48:22 10° NE 18:49:20 11° ENE 18:50:17 10° E visible
11 Mar 2.7 20:19:46 10° NNW 20:22:39 34° W 20:25:30 10° SSW visible
12 Mar 5.7 09:50:30 10° W 09:52:01 13° WNW 09:53:32 10° NW visible
12 Mar 3.3 19:26:00 10° N 19:29:01 44° ENE 19:32:01 10° SSE visible
13 Mar 5.7 18:33:50 10° NE 18:35:01 12° ENE 18:36:11 10° E visible
13 Mar 2.8 20:05:28 10° NNW 20:08:18 32° W 20:11:06 10° SSW visible
14 Mar 5.7 09:36:16 10° W 09:37:37 12° WNW 09:38:58 10° NW visible
14 Mar 3.1 19:11:31 10° N 19:14:33 47° E 19:17:33 10° SSE visible
15 Mar 5.5 18:19:04 10° NE 18:20:24 12° ENE 18:21:26 11° E visible
15 Mar 2.9 19:50:52 10° NNW 19:53:40 30° W 19:53:42 30° W visible
16 Mar 4.0 18:56:45 10° N 18:58:24 27° NNE 18:58:24 27° NNE visible
17 Mar 4.7 19:36:00 10° NNW 19:36:08 11° NNW 19:36:08 11° NNW visible
18 Mar 5.2 18:41:42 10° N 18:41:44 10° N 18:41:44 10° N visible
